SCP
1 1 0 0 0 0 0 0 0 0 0 0 0 0 0 0 0 0 0 0 0 0 0 0 0 0 0 0 0 0 0 0 0 0 0 0 0 0 0 0 0 0 0 0
1 0 0 0 0 0 0 0 0 0 0 0 0 0 0 0 0 0 0 0 0 0 0 0 0 0 0 0 0 0 0 0 0 0 0 0 0 0 0 0 0 0 0 0
0 0 0 0 0 0 0 0 0 0 0 0 0 0 0 0 0 0 0 0 0 0 0 0 0 0 0 0 0 0 0 0 0 0 0 0 0 0 0 0 0 0 0 0
0 0 0 0 0 0 0 0 0 0 0 0 0 0 0 0 0 0 0 0 0 0 0 0 0 0 0 0 0 0 0 0 0 0 0 0 0 0 0 0 0 0 0 0
0 0 0 0 0 0 0 0 0 0 0 0 0 0 0 0 0 0 0 0 0 0 0 0 0 0 0 0 0 0 0 0 0 0 0 0 0 0 0 0 0 0 0 0
0 0 0 0 0 0 0 0 0 0 0 0 0 0 0 0 0 0 0 0 0 0 0 0 0 0 0 0 0 0 0 0 0 0 0 0 0 0 0 0 0 0 0 0
0 0 0 0 0 0 0 0 0 0 0 0 0 0 0 0 0 0 0 0 0 0 0 0 0 0 0 0 0 0 0 0 0 0 0 1 1 1 0 0 0 0 0 0
0 0 0 0 0 0 0 0 0 0 0 0 0 0 0 0 0 0 0 0 0 0 0 0 0 0 0 0 0 0 0 0 0 0 1 1 1 1 1 0 0 0 0 0
0 0 0 0 0 0 0 0 0 0 0 0 0 0 0 0 0 0 0 0 0 0 0 0 0 0 0 0 0 0 0 0 0 1 1 1 1 1 1 1 0 0 0 0
0 0 0 0 0 0 0 0 0 0 0 0 0 0 0 0 0 0 0 0 0 0 0 0 0 0 0 0 0 0 0 0 1 1 1 1 1 1 1 1 1 0 0 0
0 0 0 0 0 0 0 0 0 0 0 0 0 0 0 0 0 0 0 0 0 0 0 0 0 0 0 0 0 0 0 0 0 1 1 1 1 0 0 0 0 0 0 0
0 0 0 0 0 0 0 0 0 0 0 0 0 0 0 0 0 0 0 0 0 0 0 0 0 0 0 0 0 0 0 0 0 0 0 0 0 0 0 0 0 0 0 0
0 0 0 0 0 0 0 0 0 0 0 0 0 0 0 0 0 0 0 0 0 0 0 0 0 0 0 0 0 0 0 0 0 0 0 0 0 0 0 0 0 0 0 0
0 0 0 0 0 0 0 0 0 0 0 0 0 0 0 0 0 0 0 0 0 0 0 0 0 0 0 0 0 0 0 0 0 0 0 0 0 0 0 0 0 0 0 0
0 0 0 0 0 0 0 0 0 0 0 0 0 0 0 0 0 0 0 0 0 0 0 0 0 0 0 0 0 0 0 0 0 0 0 0 0 0 0 0 0 0 0 0
0 0 0 0 0 0 0 0 0 0 0 0 0 0 0 0 0 0 0 0 0 0 0 0 0 0 0 0 0 0 0 0 0 0 0 0 0 0 0 0 0 0 0 0
0 0 0 0 0 0 0 0 0 0 0 0 0 0 0 0 0 0 0 0 0 0 0 0 0 0 0 0 0 0 0 0 0 0 0 0 0 0 0 0 0 0 0 0
0 0 0 0 0 0 0 0 0 0 0 0 0 0 0 0 0 0 0 0 0 0 0 0 0 0 0 0 0 0 0 0 0 0 0 0 0 0 0 0 0 0 0 0
0 0 0 0 0 0 0 0 0 0 0 0 0 0 0 0 0 0 0 0 0 0 0 0 0 0 0 0 0 0 0 0 0 0 0 0 0 0 0 0 0 0 0 0
0 0 0 0 0 0 0 0 0 0 0 0 0 0 0 0 0 0 0 0 0 0 0 0 0 0 0 0 0 0 0 0 0 0 0 0 0 0 0 0 0 0 0 0
0 0 0 0 0 0 0 0 0 0 0 0 0 0 0 0 0 0 0 0 0 0 0 0 0 0 0 0 0 0 0 0 0 0 0 0 0 0 0 0 0 0 0 0
0 0 0 0 0 0 0 0 0 0 0 0 0 0 0 0 0 0 0 0 0 0 0 0 0 0 0 0 0 0 0 0 0 0 0 0 0 0 0 0 0 0 0 0
0 0 0 0 0 0 0 0 0 0 0 0 0 0 0 0 0 0 0 0 0 0 0 0 0 0 0 0 0 0 0 0 0 0 0 0 0 0 0 0 0 0 0 0
0 0 0 0 0 0 0 0 0 0 0 0 0 0 0 0 0 0 0 0 0 0 0 0 0 0 0 0 0 0 0 0 0 0 0 0 0 0 0 0 0 0 0 0
0 0 0 0 0 0 0 0 0 0 0 0 0 0 0 0 0 0 0 0 0 0 0 0 0 0 0 0 0 0 0 0 0 0 0 0 0 0 0 0 0 0 0 0
0 0 0 0 0 0 0 0 0 0 0 0 0 0 0 0 0 0 0 0 0 0 0 0 0 0 0 0 0 0 0 0 0 0 0 0 0 0 0 0 0 0 0 0
Wind_Speed
6 7 14 15 15 8 6 6 8 6 4 6 12 14 13 9 7 9 10 10 10 12 12 9 9 9 9 9 10 12 12 12 9 7 8 9 10 9 8 8 9 10 10 10
7 16 14 9 9 9 8 9 8 4 4 6 9 14 12 12 11 11 12 12 12 11 9 8 8 8 10 11 11 11 12 12 12 11 8 6 5 5 6 6 8 10 11 11
17 8 10 10 10 13 14 13 11 6 2 4 5 11 12 11 10 10 10 11 11 12 12 10 8 9 9 10 12 11 13 13 13 11 5 3 3 2 4 7 8 10 11 11
12 8 8 11 13 14 16 11 9 8 5 6 5 11 10 10 11 12 13 11 12 11 11 10 9 8 9 11 10 11 11 11 11 11 9 10 10 10 10 7 6 7 9 10
11 9 11 14 14 13 7 6 9 9 8 9 7 10 10 6 12 13 13 13 12 11 11 10 10 10 9 9 8 9 9 9 10 11 13 12 12 10 6 4 5 6 7 9
7 5 9 11 8 10 4 2 2 5 7 16 16 13 12 9 12 9 9 10 10 10 10 10 9 7 6 6 6 6 7 8 8 10 11 12 13 11 7 7 7 6 5 6
9 8 6 5 6 7 8 7 6 8 10 13 9 12 14 8 9 11 10 10 9 9 9 8 7 6 6 5 6 6 7 7 7 8 9 10 11 10 10 8 7 6 5 6
11 11 12 9 11 10 13 14 11 9 8 6 6 14 11 6 7 7 8 8 8 8 8 8 7 7 6 5 5 6 7 7 7 8 8 8 8 6 6 7 5 6 6 6
10 9 5 9 8 11 10 12 9 5 4 6 8 8 9 4 6 7 7 7 8 8 8 8 6 5 5 4 5 6 6 6 6 7 7 7 7 6 6 5 5 4 4 4
5 5 4 5 4 8 9 8 6 10 10 12 9 9 9 6 8 8 8 9 10 8 7 5 4 3 3 4 3 4 5 6 5 5 5 4 5 6 5 4 4 4 4 3
5 6 4 5 12 14 10 11 9 7 8 10 10 11 7 10 10 10 11 9 8 7 5 3 2 2 2 2 2 2 3 3 3 4 4 4 4 4 4 3 4 4 3 3
7 5 7 9 7 7 10 13 13 11 10 8 8 11 3 6 6 6 7 6 5 4 3 2 1 1 1 1 1 2 2 3 3 3 3 3 3 3 3 3 3 2 2 2
7 6 6 5 4 5 8 9 11 10 7 9 11 12 3 3 4 5 6 5 4 3 2 1 1 1 1 1 1 1 1 1 2 2 3 3 2 2 3 3 2 2 2 1
7 6 10 13 8 6 8 10 10 11 11 13 15 16 12 7 7 6 6 6 5 4 3 3 2 1 1 1 1 1 0 1 1 2 3 2 2 2 2 2 2 1 1 1
5 7 9 10 8 7 10 13 14 16 16 14 13 16 19 12 9 8 7 6 5 5 4 4 3 2 1 1 0 1 1 1 1 2 2 2 1 1 1 1 0 0 1 1
5 6 6 10 10 10 12 14 16 18 17 18 16 20 17 11 8 8 8 8 8 8 7 5 4 3 3 3 2 1 1 1 1 2 2 1 2 2 1 1 1 1 1 1
5 5 6 10 8 7 15 17 18 16 15 15 21 23 15 12 13 12 11 10 10 9 8 7 6 6 5 4 4 3 2 2 2 2 2 2 2 2 1 2 2 1 1 2
8 7 5 6 5 16 12 9 14 16 18 17 16 16 15 15 13 10 9 10 10 9 8 8 7 6 4 3 2 2 2 3 3 3 2 2 2 2 2 2 2 2 1 1
13 10 7 6 10 12 10 7 10 13 17 15 17 18 15 10 7 9 8 9 10 9 8 7 6 5 4 4 3 3 3 3 3 2 1 1 1 1 1 2 2 1 2 2
11 11 9 8 9 11 11 8 7 6 13 12 14 16 14 7 8 12 6 5 5 5 4 4 4 3 4 3 4 5 4 3 2 1 1 1 1 1 1 1 2 2 2 2
8 9 13 13 12 11 10 5 6 10 12 7 10 12 10 11 13 8 4 4 4 4 4 4 4 4 3 3 4 5 4 3 1 1 1 1 1 1 1 2 2 2 2 2
10 8 9 8 11 13 6 6 10 9 5 4 5 7 7 8 7 5 4 4 4 4 3 4 4 3 2 3 5 5 4 2 2 2 2 1 1 2 2 2 2 2 2 2
10 10 7 10 10 5 5 7 6 3 5 5 5 5 4 5 6 5 4 4 4 4 4 4 4 4 2 2 4 4 2 2 3 3 2 2 2 2 2 2 2 2 2 2
6 4 6 8 9 7 7 6 6 5 6 6 5 4 3 4 4 3 3 3 4 4 4 4 5 4 2 2 2 3 3 3 3 3 2 2 2 2 2 2 1 1 1 1
7 5 6 10 9 7 9 9 7 6 5 4 3 4 4 4 4 4 3 3 3 3 3 3 4 4 3 3 3 3 3 4 4 3 2 2 2 2 2 2 1 1 1 1
6 7 9 11 8 8 9 6 5 4 5 5 4 3 2 4 4 4 3 3 3 3 3 3 3 3 3 4 3 2 2 3 4 3 2 1 1 1 1 1 2 3 3 4
Wind_Direction
182 195 210 208 209 214 199 208 225 225 203 204 231 245 252 247 238 240 241 238 236 239 244 242 231 225 219 213 209 209 208 206 195 194 201 207 216 216 215 216 212 208 208 206
194 222 217 206 211 222 225 232 236 250 215 218 248 254 251 241 231 229 234 237 238 241 250 246 235 220 214 214 213 212 211 206 200 203 201 199 197 207 214 212 212 210 210 208
212 217 190 195 203 212 225 226 225 227 272 251 276 271 246 246 233 235 234 234 236 233 238 241 235 225 218 218 216 214 213 209 206 202 182 171 169 184 199 212 217 215 211 211
229 228 192 200 212 203 231 219 216 217 217 243 216 269 253 236 243 238 237 235 238 237 236 236 231 227 221 223 218 214 213 210 206 195 191 193 202 213 218 214 214 210 208 214
219 195 196 212 213 197 216 187 202 217 225 247 219 253 263 210 237 240 235 234 235 235 232 232 230 228 226 223 216 211 207 207 202 197 200 202 213 222 221 204 207 210 210 213
237 217 205 212 208 195 177 140 198 211 221 242 224 228 261 205 221 232 230 230 233 233 233 236 237 232 231 222 211 206 201 207 202 196 200 205 213 217 214 211 214 216 214 215
228 231 219 182 176 185 180 183 214 219 221 239 199 218 250 210 209 215 223 227 229 230 231 234 233 230 229 221 209 201 196 206 200 195 199 206 212 213 214 217 218 215 216 219
209 225 204 193 192 189 198 197 206 216 224 249 198 227 249 213 218 222 222 225 228 229 231 231 228 224 222 218 207 197 194 199 196 193 199 205 208 209 216 218 217 217 223 227
203 228 200 199 183 170 188 212 215 227 249 257 239 253 284 236 230 228 227 227 231 232 232 229 226 219 214 210 209 200 192 193 192 192 193 196 200 204 211 214 213 218 227 231
191 232 222 196 172 203 192 173 182 211 224 240 244 236 239 213 220 225 225 226 234 237 235 230 220 216 209 201 204 195 190 190 191 186 190 193 200 205 210 205 209 221 230 232
196 216 234 187 197 197 186 196 201 209 212 219 246 251 220 210 207 212 221 225 227 231 231 222 222 214 193 181 176 179 182 181 180 182 183 184 191 199 202 204 218 226 231 231
193 201 235 229 229 214 207 206 202 213 226 221 239 256 230 207 209 210 224 230 227 223 218 204 194 183 162 170 176 176 177 176 182 178 169 172 174 176 186 207 228 231 236 242
176 198 227 252 239 213 219 216 216 222 225 228 236 258 260 229 241 237 234 241 239 228 219 208 186 183 183 173 158 155 157 169 167 156 153 158 169 177 191 207 221 225 230 250
191 206 214 225 225 199 220 223 216 215 230 239 238 255 266 255 248 244 238 234 234 231 228 228 227 217 202 174 130 107 87 116 132 141 149 158 177 194 205 211 213 218 228 244
210 227 234 249 251 231 233 231 225 227 230 236 245 249 258 252 241 238 232 227 228 232 231 226 221 224 222 200 124 98 98 71 101 131 141 155 155 144 127 122 225 254 247 259
215 229 237 256 249 243 250 242 232 233 234 239 250 256 254 252 244 241 231 222 225 228 226 225 220 212 215 212 199 178 167 126 109 117 121 113 110 100 87 72 45 31 359 327
204 204 222 246 249 250 242 228 227 228 223 221 237 248 253 250 238 231 228 221 224 227 219 214 215 213 213 211 196 188 182 135 111 104 88 71 72 77 66 57 49 33 5 357
208 213 225 244 233 239 243 217 217 230 238 231 235 245 244 243 243 236 222 218 226 223 220 217 212 212 207 194 186 164 135 125 114 97 77 55 62 67 51 55 50 18 11 7
207 207 215 222 239 256 267 234 204 217 242 234 236 245 247 246 257 259 236 219 218 217 213 214 210 204 191 179 165 147 132 118 109 107 91 46 40 55 53 56 39 19 23 16
206 204 214 221 230 235 241 223 206 197 249 237 227 238 242 218 238 252 233 211 209 206 199 196 186 170 167 172 156 145 141 132 139 146 102 64 52 57 53 45 31 20 26 18
187 204 219 231 241 249 245 220 154 197 239 232 219 229 228 217 230 243 201 189 194 191 180 166 160 166 175 161 149 145 142 154 158 111 97 81 70 71 65 49 37 39 39 33
194 199 209 214 234 246 225 167 195 224 245 246 239 237 230 237 242 237 208 183 170 161 154 153 152 157 151 146 145 148 156 148 119 112 104 93 66 58 66 70 52 44 51 49
210 207 202 207 225 238 190 202 224 234 242 247 247 250 228 236 240 233 215 185 169 164 160 153 150 145 132 132 143 150 151 122 121 120 119 103 76 59 52 70 72 60 49 48
236 215 218 241 245 243 242 246 248 240 241 250 247 241 215 224 231 232 202 176 168 162 160 156 149 148 145 115 114 132 129 121 123 124 118 105 94 71 51 45 53 68 65 57
221 201 221 241 249 262 258 247 246 247 250 254 252 235 210 202 222 216 207 198 186 170 157 158 162 160 157 135 118 110 118 129 129 127 115 100 91 91 72 47 31 25 25 17
218 217 225 242 238 235 249 249 240 238 245 241 241 255 238 201 209 206 206 200 182 168 150 147 153 153 152 139 128 115 123 142 143 137 130 117 102 90 78 59 24 15 14 17